Regional Weather Roundup
Issued by NWS Little Rock, AR

Home | Current Version | Previous Version | Text Only | Print | Product List | Glossary Off
Versions: 1 2 3 4 5 6 7 8 9 10 11 12 13 14 15 16 17 18 19 20 21 22 23 24 25 26 27 28 29 30 31 32 33 34 35 36 37 38 39 40 41 42 43 44 45 46 47 48 49 50

000
ASUS44 KLZK 221105
RWRLZK

WEATHER ROUNDUP FOR ARKANSAS
NATIONAL WEATHER SERVICE LITTLE ROCK AR
600 AM CDT MON SEP 22 2014

NOTE: "FAIR" INDICATES FEW OR NO CLOUDS BELOW 12,000 FEET WITH NO
SIGNIFICANT WEATHER AND/OR OBSTRUCTIONS TO VISIBILITY.

ARZ001-003-010-029-221200-
NORTHWEST ARKANSAS

CITY           SKY/WX    TMP DP  RH WIND       PRES   REMARKS
FAYETTEVILLE   CLEAR     48  48 100 CALM      30.25R
FORT SMITH     CLEAR     58  53  84 CALM      30.22R
HARRISON       CLEAR     51  49  92 N5        30.25R
BENTONVILLE    CLEAR     54  48  82 NE3       30.26R
ROGERS         CLEAR     52  49  89 NE5       30.26R
SILOAM SPGS    CLEAR     55  45  67 NE5       30.26R
HIGHFILL       CLEAR     51  48  89 N5        30.25R
$$

ARZ004-005-016-221200-
NORTH CENTRAL ARKANSAS

CITY           SKY/WX    TMP DP  RH WIND       PRES   REMARKS
BATESVILLE     CLEAR     57  48  72 N3        30.21R
FLIPPIN        CLEAR     55  46  71 N7        30.24R
MTN HOME       CLEAR     55  49  80 CALM      30.23R
$$

ARZ040-041-221200-
WEST CENTRAL ARKANSAS

CITY           SKY/WX    TMP DP  RH WIND       PRES   REMARKS
MENA             N/A     61  55  82 CALM        N/A
MOUNT IDA      CLEAR     56  54  93 CALM      30.19R
$$

ARZ009-017-025-026-028-221200-
NORTHEAST ARKANSAS

CITY           SKY/WX    TMP DP  RH WIND       PRES   REMARKS
CORNING          N/A     54  50  87 NW5       30.22R
JONESBORO      CLEAR     60  51  72 N7        30.20R
NEWPORT        CLEAR     56  52  86 N15       30.21R
WALNUT RIDGE   CLEAR     55  30  38 N6        30.20R
BLYTHEVILLE    CLEAR     54  52  93 N6        30.19R
$$

ARZ022-023-033-042-044-221200-
CENTRAL ARKANSAS

CITY           SKY/WX    TMP DP  RH WIND       PRES   REMARKS
LITTLE ROCK    CLEAR     61  49  64 N10       30.19R
N LITTLE ROCK    N/A     59  52  76 N9        30.19R
JACKSONVILLE   CLEAR     57  49  75 N6        30.20R
SEARCY         CLEAR     58  50  75 N5        30.21R
HOT SPRINGS    CLEAR     62  50  64 CALM      30.20R
RUSSELLVILLE   CLEAR     54  52  93 CALM      30.21R
CLINTON        FAIR      54  52  94 CALM      30.23R
$$

ARZ036-221200-
EAST ARKANSAS

CITY           SKY/WX    TMP DP  RH WIND       PRES   REMARKS
WEST MEMPHIS   CLEAR     56  54  93 N7        30.16R
$$

ARZ050-053-066-070-073-221200-
SOUTHWEST ARKANSAS

CITY           SKY/WX    TMP DP  RH WIND       PRES   REMARKS
ARKADELPHIA    FAIR      62  54  75 NE5       30.18R
CAMDEN         PTCLDY    63  52  67 NE3       30.15R
TEXARKANA      PTCLDY    65  56  72 NE6       30.17R
EL DORADO      PTCLDY    65  54  67 N7        30.15R
DE QUEEN       CLEAR     59  57  93 CALM      30.16R
$$

ARZ056-057-069-221200-
SOUTHEAST ARKANSAS

CITY           SKY/WX    TMP DP  RH WIND       PRES   REMARKS
PINE BLUFF     CLEAR     58  52  80 N6        30.17R
STUTTGART      CLEAR     57  50  77 N7        30.18R
MONTICELLO     CLEAR     64  52  64 VRB5      30.14R

$$





USA.gov is the U.S. government's official web portal to all federal, state and local government web resources and services.